Wind_Speed
113 112 112 115 113 112 110 106 103 103 102 95 90 86 82 82 74 71 68 66 62 56 52 54 61 58 55 55 52 51 50 47 45 42 40 40 42 43 46 41 45 44 43 43
114 109 112 124 120 118 114 110 106 107 103 98 95 86 84 80 77 75 71 68 67 61 56 56 55 56 57 55 54 53 52 50 49 49 49 49 46 47 48 52 50 50 51 53
112 109 113 123 124 122 117 112 110 110 106 100 99 90 88 82 79 79 76 70 70 68 64 61 62 61 60 58 56 56 55 54 55 55 54 55 55 54 54 55 54 52 53 55
106 113 111 113 123 124 121 116 113 112 112 106 100 94 92 86 80 78 77 74 71 72 71 68 64 59 62 60 60 60 59 57 56 55 57 60 60 60 59 58 58 57 57 58
103 107 109 108 115 124 124 118 117 114 113 112 103 99 87 87 84 80 79 78 79 77 75 72 70 69 64 62 62 64 63 61 60 59 59 61 61 64 64 62 61 61 60 59
101 104 104 108 114 120 126 123 121 117 114 112 105 104 87 90 83 84 83 82 82 80 78 76 74 73 71 71 67 65 64 63 62 61 60 64 65 64 64 65 66 66 67 68
98 100 100 104 109 115 124 126 125 122 119 110 109 112 91 90 89 90 89 86 83 84 83 81 79 78 75 74 71 70 68 68 66 63 64 65 68 65 65 69 69 65 66 69
105 101 96 97 106 110 119 126 127 123 122 116 116 109 101 92 94 93 93 92 89 87 85 83 82 81 80 80 75 74 71 69 67 68 67 65 65 71 68 66 70 72 69 68
106 99 95 96 104 110 114 119 122 126 126 124 119 110 103 102 96 95 95 96 98 95 91 86 84 81 79 79 80 78 76 74 71 71 69 66 67 68 73 74 73 77 74 74
101 98 93 94 97 107 111 113 117 123 127 125 119 114 105 105 104 101 97 99 99 98 96 91 87 84 81 81 81 81 79 78 78 76 75 75 72 71 73 75 74 77 80 80
100 98 95 94 93 101 109 113 116 116 120 124 121 113 110 107 108 108 103 101 100 99 101 99 94 91 88 88 86 84 84 84 83 82 81 79 77 76 75 75 76 75 77 80
95 97 99 96 94 99 103 110 112 113 113 115 118 109 111 113 110 110 109 106 102 103 104 104 103 97 95 93 92 90 89 88 87 86 84 83 80 79 79 78 80 81 81 80
90 95 98 94 93 93 98 101 106 109 112 109 110 101 109 112 113 111 114 115 111 107 108 109 107 105 102 98 96 96 94 94 93 92 90 87 86 85 83 82 82 84 85 85
96 100 99 95 94 97 98 98 104 110 107 103 101 94 101 108 113 114 117 118 118 114 113 111 108 107 106 106 104 102 101 99 98 97 95 94 92 91 90 90 88 87 88 89
96 99 98 97 96 97 97 96 97 101 100 105 89 95 94 100 105 110 115 116 121 119 119 117 114 111 111 110 109 108 106 105 103 101 99 99 97 95 95 95 96 95 94 93
89 94 96 96 96 97 96 93 89 89 92 91 95 90 90 100 103 105 108 110 115 120 123 123 119 119 117 113 112 112 112 111 110 109 108 106 104 103 101 99 98 99 99 99
86 88 90 92 94 96 89 85 89 91 90 86 87 79 90 93 95 94 97 104 112 118 120 122 123 122 122 119 115 114 115 115 114 114 113 112 111 111 110 109 107 105 104 104
81 82 87 89 92 91 82 86 88 89 89 87 82 82 87 89 87 86 96 99 104 107 113 119 123 125 124 123 121 118 115 114 116 119 118 117 117 117 116 115 113 112 111 109
78 80 81 83 84 80 78 79 83 90 85 84 82 80 86 91 89 82 96 96 95 101 108 110 115 119 122 121 121 121 121 121 119 117 116 118 120 121 121 121 118 117 116 114
75 76 80 79 79 76 71 78 82 88 78 84 86 84 88 90 86 84 93 93 92 91 94 97 104 109 110 113 116 116 115 117 119 121 122 124 123 120 118 118 119 118 118 118
77 78 79 81 83 75 71 75 82 87 71 86 89 84 86 87 86 85 88 90 91 91 91 93 93 95 96 99 106 109 108 106 105 106 109 111 112 113 112 110 110 110 111 112
77 80 81 83 82 71 76 80 85 83 81 81 85 86 88 88 87 88 88 90 91 91 91 89 88 89 88 88 89 93 96 99 99 99 99 101 103 104 106 106 107 107 108 110
75 81 83 83 77 72 78 84 87 86 84 86 86 87 88 88 88 88 87 87 88 89 90 89 87 87 88 87 87 88 90 92 94 95 97 98 100 100 102 102 103 104 105 106
67 73 75 76 71 70 75 80 84 85 85 87 88 88 91 89 91 91 90 91 89 88 89 91 90 90 90 89 89 89 90 91 94 95 96 97 98 99 99 100 102 103 105 106
62 64 64 62 61 64 63 68 69 74 77 80 84 86 88 91 91 90 89 91 91 89 89 92 92 93 93 91 91 91 90 91 93 95 95 96 96 96 97 96 96 98 100 102
66 64 61 58 55 54 57 56 55 60 64 67 71 77 79 83 85 84 84 87 88 87 88 91 91 91 93 93 93 91 90 89 90 92 93 93 90 90 87 88 89 91 94 96
Wind_Direction
225 220 213 214 213 214 216 219 221 224 224 221 223 228 236 233 236 238 239 240 241 242 243 241 239 242 246 248 249 252 252 248 255 257 261 261 260 264 261 260 263 265 268 274
226 224 216 213 214 214 215 218 219 223 225 223 223 224 234 234 235 239 239 240 241 241 242 242 243 245 247 248 250 251 251 256 256 260 261 264 264 261 263 270 274 273 271 272
228 226 221 216 215 215 215 217 220 222 224 223 224 222 231 231 231 239 241 241 242 242 241 242 242 243 247 248 251 253 252 253 253 256 260 262 262 266 267 270 271 272 274 272
228 227 225 221 217 218 216 217 220 223 224 223 222 222 229 231 230 235 239 241 242 244 243 244 241 242 244 245 250 249 250 249 252 255 256 258 261 265 268 270 267 269 270 270
227 228 227 224 219 219 218 219 220 222 225 224 223 222 226 231 231 232 235 238 242 245 245 245 244 245 244 246 245 245 247 248 251 254 256 258 258 260 263 266 267 267 267 269
231 227 225 223 220 220 220 219 219 221 224 225 225 224 219 232 231 233 235 237 240 243 245 246 247 247 247 250 250 248 249 253 255 256 256 259 259 260 261 263 265 268 268 268
235 230 225 224 223 221 221 221 221 220 223 224 226 225 215 231 232 234 235 236 237 240 244 246 248 250 250 251 252 255 254 253 257 255 256 257 258 260 260 261 264 266 270 270
237 233 227 222 224 223 222 223 224 223 223 224 224 226 221 224 234 234 236 238 238 238 240 244 246 249 251 253 254 255 256 254 253 255 254 258 261 260 260 262 264 263 266 269
234 235 229 223 224 224 224 224 225 226 224 224 225 225 223 222 229 235 236 238 240 239 239 243 247 250 254 257 257 256 259 257 255 254 257 260 262 264 262 264 267 265 263 267
230 231 231 228 225 226 225 226 226 228 227 227 225 225 224 225 228 233 236 239 241 242 242 241 243 247 249 252 256 258 258 259 259 259 261 262 263 263 263 264 270 269 266 265
227 228 229 230 228 226 227 227 228 229 229 230 227 226 228 225 228 232 235 238 242 244 245 244 243 244 247 250 252 255 258 260 261 263 264 264 263 266 267 266 267 272 270 271
227 227 227 230 227 227 226 228 230 231 232 230 230 227 229 229 228 231 236 237 239 244 246 246 245 245 247 249 251 253 255 258 260 261 263 264 265 265 265 267 268 270 272 273
223 228 229 227 228 228 228 230 231 233 234 232 230 227 233 233 232 231 234 238 239 240 243 247 248 248 247 248 251 253 254 256 258 260 263 264 265 266 267 268 269 271 272 274
224 225 227 227 225 228 229 230 231 233 235 237 235 229 232 234 236 235 234 235 240 242 243 245 248 251 250 250 251 253 255 256 258 260 261 263 264 266 267 269 269 270 271 272
224 227 228 229 229 228 230 231 234 234 235 237 238 233 237 237 238 237 236 235 237 242 245 246 248 249 251 251 252 253 255 257 257 259 261 263 264 265 267 268 269 271 271 272
227 229 230 231 232 231 231 232 237 239 239 239 239 238 240 240 239 240 238 239 237 239 242 245 247 248 250 250 251 252 254 256 257 258 259 260 262 264 265 266 268 269 270 270
228 231 233 233 235 234 234 235 237 239 241 241 240 240 246 241 244 244 245 244 241 240 239 242 245 247 248 249 250 252 253 254 256 258 259 261 262 264 266 267 267 268 269 269
231 234 236 236 236 235 234 236 237 240 241 241 239 240 241 243 240 244 247 246 245 244 242 240 242 244 247 250 251 251 253 255 256 258 260 261 262 263 265 266 267 269 269 269
232 234 236 238 239 237 237 238 240 241 240 244 242 242 242 240 239 240 246 247 246 247 246 244 244 244 246 250 254 256 256 257 257 259 261 262 263 264 265 267 268 269 269 269
233 235 237 238 238 236 234 238 240 241 239 245 243 242 242 242 240 239 246 249 250 249 250 248 248 248 248 250 252 256 258 260 261 262 263 262 263 264 265 265 265 266 267 268
233 234 236 238 238 235 235 238 241 241 236 242 245 242 244 244 244 241 244 247 248 250 250 251 251 250 249 250 252 254 256 258 260 261 263 263 264 264 265 265 265 266 266 268
236 237 239 241 241 236 237 239 241 243 241 239 243 243 243 242 243 242 241 244 248 250 253 254 255 256 255 253 254 256 256 256 257 259 260 262 263 263 263 264 265 266 267 268
241 243 243 244 244 241 240 242 243 243 242 243 242 244 245 247 247 248 248 247 248 249 252 253 253 255 256 255 254 256 257 258 260 260 261 261 262 262 263 264 265 265 266 267
243 244 246 248 249 246 246 247 246 247 246 246 246 246 247 244 246 247 247 248 248 249 251 252 253 253 254 255 255 255 257 259 260 262 263 263 264 265 265 264 264 265 265 266
247 248 249 251 250 249 248 248 247 247 247 247 248 248 248 249 247 246 247 249 249 249 250 251 252 254 256 256 257 257 258 259 260 262 264 264 265 266 266 267 267 266 265 265
249 249 249 248 248 248 249 247 246 246 246 245 247 249 248 249 251 250 249 250 252 253 253 253 254 254 255 256 256 257 258 260 261 262 265 266 267 267 268 268 267 267 267 267
Height
10541 10557 10586 10609 10615 10629 10646 10661 10675 10685 10694 10712 10727 10740 10738 10760 10773 10779 10785 10791 10794 10797 10803 10807 10812 10817 10821 10824 10828 10833 10836 10841 10842 10845 10846 10848 10847 10847 10846 10847 10847 10847 10847 10847
10520 10546 10567 10576 10589 10606 10622 10640 10654 10664 10675 10698 10712 10730 10728 10751 10763 10767 10773 10778 10780 10786 10791 10795 10800 10805 10808 10812 10816 10821 10825 10831 10833 10833 10836 10836 10838 10837 10838 10837 10838 10839 10838 10837
10508 10531 10544 10557 10573 10587 10606 10623 10637 10646 10658 10678 10698 10719 10718 10732 10751 10756 10760 10762 10766 10770 10776 10782 10787 10792 10796 10799 10804 10810 10813 10817 10819 10822 10824 10823 10825 10825 10827 10827 10828 10828 10827 10826
10485 10505 10524 10547 10560 10572 10587 10603 10615 10627 10637 10659 10679 10706 10709 10720 10739 10744 10744 10746 10749 10754 10762 10768 10774 10778 10782 10786 10793 10795 10798 10803 10806 10809 10811 10812 10812 10811 10815 10816 10816 10816 10815 10814
10472 10487 10508 10528 10545 10557 10574 10582 10596 10608 10623 10642 10667 10683 10707 10708 10724 10729 10727 10728 10734 10738 10746 10752 10758 10764 10768 10772 10777 10780 10785 10788 10790 10796 10797 10799 10801 10799 10801 10803 10803 10803 10803 10802
10452 10468 10485 10507 10521 10535 10553 10564 10577 10589 10605 10628 10655 10667 10700 10693 10710 10712 10714 10717 10720 10723 10728 10736 10742 10749 10754 10760 10764 10768 10773 10775 10778 10780 10784 10786 10786 10787 10789 10790 10790 10790 10791 10790
10440 10452 10474 10490 10508 10523 10539 10548 10556 10570 10588 10624 10631 10644 10694 10678 10687 10689 10694 10700 10704 10708 10712 10718 10727 10734 10742 10746 10751 10756 10759 10762 10765 10768 10770 10771 10770 10774 10776 10775 10778 10778 10777 10776
10422 10441 10465 10480 10494 10507 10521 10528 10542 10558 10573 10594 10606 10630 10670 10667 10663 10674 10678 10683 10691 10692 10693 10702 10711 10719 10725 10729 10738 10741 10745 10747 10752 10753 10754 10757 10758 10758 10759 10761 10761 10763 10762 10761
10412 10430 10448 10465 10476 10487 10504 10512 10521 10533 10550 10565 10589 10616 10641 10652 10648 10653 10660 10662 10661 10670 10681 10692 10701 10709 10714 10716 10720 10726 10730 10732 10736 10738 10741 10743 10745 10744 10744 10746 10748 10745 10747 10747
10402 10415 10431 10448 10461 10469 10484 10493 10503 10516 10535 10548 10577 10595 10623 10631 10633 10634 10642 10642 10646 10657 10664 10675 10685 10691 10695 10698 10701 10707 10712 10715 10718 10723 10725 10728 10730 10730 10729 10731 10731 10728 10730 10732
10387 10402 10418 10429 10445 10453 10466 10476 10485 10497 10513 10532 10561 10586 10595 10613 10617 10618 10622 10629 10635 10641 10646 10655 10666 10674 10676 10680 10684 10690 10694 10699 10702 10706 10709 10712 10712 10714 10715 10717 10715 10714 10714 10714
10376 10388 10398 10413 10426 10435 10448 10461 10472 10481 10496 10513 10538 10573 10574 10586 10601 10604 10606 10612 10619 10623 10626 10633 10642 10653 10661 10666 10669 10673 10677 10679 10682 10686 10690 10693 10696 10697 10698 10700 10699 10697 10697 10697
10367 10371 10384 10400 10412 10426 10439 10448 10455 10464 10471 10498 10515 10564 10562 10568 10576 10584 10587 10584 10596 10606 10610 10611 10620 10630 10638 10645 10649 10653 10658 10662 10665 10667 10671 10674 10677 10680 10682 10683 10682 10682 10680 10680
10342 10354 10367 10383 10397 10402 10414 10426 10435 10443 10461 10488 10509 10543 10540 10545 10548 10556 10564 10570 10574 10582 10590 10596 10600 10607 10616 10623 10629 10632 10637 10641 10645 10648 10651 10655 10658 10659 10660 10662 10664 10663 10662 10661
10332 10346 10360 10372 10383 10393 10404 10415 10422 10438 10463 10457 10505 10511 10520 10520 10519 10525 10540 10555 10563 10566 10569 10575 10582 10587 10591 10598 10604 10610 10615 10620 10624 10627 10630 10632 10635 10638 10640 10641 10642 10642 10641 10639
10328 10335 10346 10358 10368 10377 10391 10405 10419 10432 10441 10462 10469 10491 10478 10479 10491 10503 10522 10533 10542 10544 10546 10551 10557 10561 10567 10573 10580 10586 10591 10594 10599 10602 10605 10608 10611 10613 10615 10618 10619 10619 10619 10618
10311 10322 10333 10345 10351 10361 10385 10405 10406 10409 10420 10437 10451 10482 10449 10471 10480 10499 10504 10497 10505 10512 10519 10523 10527 10530 10537 10548 10555 10562 10566 10571 10574 10577 10581 10585 10587 10589 10590 10592 10595 10596 10596 10595
10305 10314 10319 10328 10335 10350 10381 10380 10387 10394 10402 10414 10436 10443 10440 10450 10469 10482 10466 10470 10476 10480 10489 10497 10503 10510 10514 10521 10529 10535 10540 10545 10549 10553 10556 10560 10562 10564 10566 10567 10568 10569 10570 10570
10291 10297 10305 10311 10323 10345 10361 10369 10369 10368 10389 10401 10414 10417 10417 10424 10442 10469 10435 10441 10457 10460 10470 10483 10489 10496 10502 10507 10507 10511 10515 10521 10527 10529 10532 10534 10537 10539 10540 10541 10542 10543 10543 10542
10280 10286 10291 10300 10308 10329 10345 10344 10347 10348 10387 10373 10385 10392 10398 10408 10426 10435 10420 10427 10436 10443 10446 10455 10461 10474 10484 10485 10486 10487 10490 10493 10496 10499 10502 10506 10508 10510 10511 10512 10514 10515 10514 10514
10266 10271 10277 10280 10291 10320 10330 10328 10325 10332 10371 10349 10357 10377 10380 10388 10403 10408 10403 10407 10411 10417 10425 10430 10437 10444 10455 10462 10463 10464 10466 10468 10470 10472 10474 10476 10478 10480 10482 10483 10485 10486 10487 10487
10252 10255 10265 10268 10280 10311 10308 10305 10305 10319 10333 10339 10340 10347 10356 10364 10371 10378 10385 10388 10392 10398 10403 10411 10419 10425 10431 10437 10439 10438 10441 10443 10445 10446 10449 10450 10451 10452 10454 10457 10459 10460 10460 10459
10241 10242 10247 10254 10273 10289 10289 10288 10289 10297 10308 10316 10323 10326 10336 10345 10351 10356 10365 10370 10376 10379 10383 10388 10394 10398 10404 10409 10412 10414 10415 10418 10419 10420 10420 10422 10424 10426 10427 10430 10431 10432 10432 10432
10226 10228 10233 10239 10259 10261 10261 10267 10272 10279 10289 10294 10300 10306 10310 10323 10326 10331 10338 10343 10350 10356 10361 10364 10367 10372 10377 10382 10387 10391 10392 10393 10393 10395 10396 10396 10397 10399 10401 10403 10404 10404 10403 10404
10212 10216 10222 10230 10237 10237 10242 10244 10253 10259 10265 10271 10276 10283 10289 10291 10299 10307 10315 10318 10324 10332 10338 10339 10343 10349 10353 10358 10361 10365 10370 10371 10371 10371 10372 10372 10373 10374 10373 10374 10375 10375 10374 10373
10195 10201 10206 10213 10218 10223 10222 10227 10236 10239 10242 10249 10256 10258 10265 10270 10276 10284 10293 10297 10301 10307 10312 10316 10322 10327 10330 10333 10336 10342 10345 10347 10347 10347 10347 10348 10349 10348 10349 10348 10347 10346 10345 10345